[[{"header":{"parameterUnit":"m.s-1","parameterCategory":1,"la1":30.2991,"la2":30.254,"lo1":-89.0895,"lo2":-89.0444,"dx":0.0017,"dy":0.0017,"nx":28,"ny":28,"refTime":"2022-11-18T15:00:00:Z","depth":0,"parameterNumber":2,"parameterNumberName":"U-component_of_WINDS"},"data":[0,0,0,0,0,0,0,0,0,0,0,0,0,0,0,0,0,0,0,0,0,0,0,0,0,0,0,0,0,0,0,0,0,0,0,0,0,0,0,0,0,0,0,0,0,0,0,0,0,0,0,0,0,0,0,0,0,0,-1.3638,-1.3638,0,-1.3692,-1.3692,-1.3693,-1.3589,-1.3586,-1.3582,-1.3579,-1.3642,-1.3646,-1.3651,0,0,0,0,0,0,0,0,0,0,0,0,0,-1.3451,-1.3455,-1.3638,-1.3638,-1.3639,-1.3691,-1.3692,-1.3693,-1.359,-1.3586,-1.3582,-1.3578,-1.364,-1.3646,-1.3652,0,0,0,0,0,0,0,0,0,0,0,0,0,-1.3522,-1.3457,-1.3638,-1.3594,-1.359,-1.3691,-1.3692,-1.3693,-1.3591,-1.3586,-1.358,-1.3576,-1.3638,-1.3645,-1.3652,-1.3801,0,0,-1.3675,-1.3678,0,0,0,0,0,0,0,0,-1.3518,-1.3529,-1.36,-1.3597,-1.3593,-1.3628,-1.3649,-1.3729,-1.3592,-1.3591,-1.3579,-1.3573,-1.3642,-1.3648,-1.367,-1.3803,-1.3806,-1.3675,-1.368,-1.3683,-1.3685,0,0,0,0,0,0,0,-1.3513,-1.3526,-1.3659,-1.3601,-1.3597,-1.3573,-1.3578,-1.3664,-1.3645,-1.3591,-1.3583,-1.3591,-1.3639,-1.3663,-1.3671,-1.3807,-1.3675,-1.3682,-1.3686,-1.3689,-1.4063,-1.4068,0,0,0,0,0,0,-1.3513,-1.3522,-1.3657,-1.3661,-1.3542,-1.3581,-1.3586,-1.3622,-1.3644,-1.3642,-1.3595,-1.3586,-1.3653,-1.3662,-1.3673,-1.3845,-1.3683,-1.369,-1.3694,-1.4057,-1.4064,-1.407,0,0,0,0,0,0,-1.3509,-1.3526,-1.3655,-1.359,-1.3604,-1.3589,-1.3632,-1.3626,-1.365,-1.3647,-1.3643,-1.3623,-1.365,-1.3662,-1.3768,-1.3846,-1.3693,-1.3699,-1.4051,-1.4059,-1.4067,-1.4194,0,0,0,0,0,0,-1.3504,-1.3525,-1.358,-1.3591,-1.3608,-1.3749,-1.3637,-1.3631,-1.3662,-1.365,-1.3672,-1.3671,-1.3647,-1.3758,-1.3776,-1.3853,-1.3705,-1.4044,-1.4054,-1.4064,-1.4183,-1.4205,-1.4225,0,0,0,0,0,-1.3498,-1.3616,-1.3583,-1.36,-1.3676,-1.3754,-1.3763,-1.3731,-1.3669,-1.3724,-1.3722,-1.367,-1.3835,-1.377,-1.3789,-1.387,-1.4038,-1.4051,-1.4063,-1.4173,-1.4201,-1.4225,0,0,0,0,0,0,-1.3617,-1.3617,-1.3581,-1.3705,-1.373,-1.3736,-1.3805,-1.3762,-1.3807,-1.3794,-1.3755,-1.3761,-1.3875,-1.3883,-1.381,-1.4014,-1.3926,-1.3943,-1.4003,-1.403,-1.4051,-1.4046,-1.3711,0,0,0,0,0,-1.3657,-1.3718,-1.3716,-1.3826,-1.384,-1.3821,-1.3854,-1.3826,-1.3851,-1.3862,-1.3867,-1.3895,-1.3953,-1.3992,-1.4046,-1.4184,-1.4186,-1.4249,-1.427,-1.4288,-1.4302,-1.4374,-1.4401,-1.4111,-1.4111,-1.4111,0,0,-1.3743,-1.375,-1.3791,-1.385,-1.3866,-1.3931,-1.383,-1.3904,-1.3952,-1.3874,-1.3973,-1.3978,-1.4007,-1.4129,-1.4183,-1.414,-1.4383,-1.4303,-1.4317,-1.4323,-1.439,-1.4417,-1.4442,-1.4119,-1.4118,-1.4116,0,0,-1.393,-1.3942,-1.4033,-1.4051,-1.4075,-1.4061,-1.4083,-1.4095,-1.4095,-1.4193,-1.4135,-1.4193,-1.4294,-1.4316,-1.434,-1.4534,-1.4488,-1.4553,-1.4664,-1.4734,-1.4757,-1.4777,-1.4845,-1.487,-1.4568,-1.4569,-1.4569,0,-1.4033,-1.4126,-1.4087,-1.4164,-1.4191,-1.412,-1.4213,-1.4233,-1.4275,-1.4296,-1.4246,-1.4369,-1.4384,-1.4509,-1.4556,-1.4579,-1.4603,-1.455,-1.4756,-1.4776,-1.4794,-1.4858,-1.4884,-1.4576,-1.4575,-1.4574,-1.4574,0,-1.425,-1.4317,-1.4388,-1.4426,-1.4462,-1.4547,-1.4522,-1.4564,-1.4533,-1.4525,-1.4626,-1.4641,-1.4695,-1.4723,-1.4696,-1.4844,-1.4816,-1.4763,-1.4674,-1.483,-1.489,-1.4914,-1.4587,-1.4584,-1.4582,-1.458,0,0,-1.4515,-1.4528,-1.4555,-1.457,-1.4591,-1.4642,-1.4724,-1.4774,-1.4809,-1.4841,-1.4908,-1.4995,-1.4944,-1.4972,-1.4947,-1.5009,-1.5159,-1.4947,-1.4947,-1.4985,-1.5322,-1.5361,-1.539,-1.5129,-1.5133,-1.5137,-1.5319,0,-1.4698,-1.4835,-1.4802,-1.4939,-1.4999,-1.4932,-1.5003,-1.5024,-1.5019,-1.5071,-1.5066,-1.5126,-1.5056,-1.5072,-1.5131,-1.5129,-1.5226,-1.5115,-1.5192,-1.5195,-1.5184,-1.5421,-1.5463,-1.5635,-1.5342,-1.5346,-1.5349,0,-1.4931,-1.4967,-1.5109,-1.5117,-1.5141,-1.5206,-1.5248,-1.5298,-1.5321,-1.5312,-1.5343,-1.5305,-1.5387,-1.5298,-1.541,-1.5336,-1.5365,-1.5369,-1.5375,-1.538,-1.528,-1.5431,-1.5689,-1.5714,-1.5386,-1.5383,-1.538,0,-1.5106,-1.5191,-1.5286,-1.5302,-1.5315,-1.5362,-1.537,-1.5387,-1.5419,-1.5457,-1.5477,-1.5525,-1.5551,-1.559,-1.5567,-1.5504,-1.5683,-1.5593,-1.5678,-1.5679,-1.5718,-1.5716,-1.5982,-1.574,-1.574,-1.5739,-1.5739,0,-1.5314,-1.5403,-1.5365,-1.5423,-1.5521,-1.5483,-1.5581,-1.5582,-1.5598,-1.5656,-1.5603,-1.5659,-1.5625,-1.5679,-1.5662,-1.5757,-1.577,-1.5766,-1.576,-1.577,-1.577,-1.5787,-1.5774,-1.5746,-1.5745,-1.5743,-1.5742,0,-1.5526,-1.5504,-1.5603,-1.5606,-1.5609,-1.5681,-1.5685,-1.574,-1.573,-1.5804,-1.582,-1.5805,-1.5866,-1.5846,-1.5913,-1.5901,-1.602,-1.6,-1.6012,-1.6006,-1.6092,-1.6084,-1.6378,-1.6414,-1.6151,-1.6153,-1.6155,0,-1.5659,-1.5726,-1.5735,-1.5768,-1.5779,-1.5835,-1.5866,-1.5831,-1.5866,-1.5896,-1.5947,-1.6003,-1.6045,-1.6145,-1.6142,-1.6192,-1.6172,-1.6271,-1.6179,-1.6186,-1.6171,-1.6166,-1.6172,-1.6289,-1.6292,-1.6295,-1.6297,0,-1.5897,-1.5882,-1.5927,-1.5968,-1.6006,-1.6037,-1.6064,-1.6096,-1.6062,-1.6105,-1.6164,-1.6197,-1.6262,-1.6318,-1.6363,-1.6373,-1.633,-1.6326,-1.6348,-1.6358,-1.6361,-1.6358,-1.606,-1.6319,-1.6317,-1.6315,-1.6314,-1.6313,-1.6073,-1.6127,-1.6141,-1.6193,-1.6209,-1.6235,-1.6285,-1.6281,-1.6329,-1.6377,-1.6355,-1.6424,-1.6444,-1.65,-1.6516,-1.657,-1.6532,-1.6565,-1.6573,-1.6581,-1.6591,-1.6353,-1.6579,-1.6578,-1.6578,-1.6577,-1.6577,0,-1.6306,-1.6311,-1.6358,-1.6396,-1.6437,-1.639,-1.6417,-1.6455,-1.6515,-1.6536,-1.6578,-1.6646,-1.6699,-1.67,-1.6749,-1.6793,-1.6774,-1.6807,-1.6803,-1.6805,-1.6623,-1.6598,-1.6821,-1.6821,-1.6821,-1.6821,-1.6821,-1.6821,-1.6431,-1.6521,-1.6507,-1.6604,-1.661,-1.6674,-1.6693,-1.6717,-1.6734,-1.6811,-1.6854,-1.6852,-1.6866,-1.6916,-1.6963,-1.6961,-1.6982,-1.7022,-1.7013,-1.6843,-1.6819,-1.6795,-1.6771,-1.7027,-1.7027,-1.719,-1.7192,-1.7193]},{"header":{"parameterUnit":"m.s-1","parameterCategory":1,"la1":30.2991,"la2":30.254,"lo1":-89.0895,"lo2":-89.0444,"dx":0.0017,"dy":0.0017,"nx":28,"ny":28,"refTime":"2022-11-18T15:00:00:Z","depth":0,"parameterNumber":3,"parameterNumberName":"V-component_of_WINDS"},"data":[0,0,0,0,0,0,0,0,0,0,0,0,0,0,0,0,0,0,0,0,0,0,0,0,0,0,0,0,0,0,0,0,0,0,0,0,0,0,0,0,0,0,0,0,0,0,0,0,0,0,0,0,0,0,0,0,0,0,-1.3098,-1.3097,0,-1.3028,-1.3027,-1.3026,-1.3006,-1.3007,-1.3007,-1.3007,-1.2935,-1.2933,-1.2931,0,0,0,0,0,0,0,0,0,0,0,0,0,-1.3215,-1.3213,-1.3098,-1.3097,-1.3097,-1.3028,-1.3027,-1.3026,-1.3006,-1.3007,-1.3007,-1.3008,-1.2936,-1.2933,-1.2931,0,0,0,0,0,0,0,0,0,0,0,0,0,-1.3156,-1.3212,-1.3098,-1.3078,-1.3076,-1.3028,-1.3027,-1.3026,-1.3006,-1.3007,-1.3007,-1.3008,-1.2937,-1.2934,-1.293,-1.2898,0,0,-1.292,-1.2918,0,0,0,0,0,0,0,0,-1.316,-1.3152,-1.3082,-1.308,-1.3077,-1.3026,-1.3042,-1.2983,-1.3006,-1.3033,-1.3007,-1.3008,-1.2965,-1.2959,-1.2945,-1.2894,-1.2891,-1.292,-1.2917,-1.2916,-1.2915,0,0,0,0,0,0,0,-1.3164,-1.3155,-1.307,-1.3081,-1.3078,-1.3073,-1.3065,-1.303,-1.2996,-1.303,-1.3029,-1.3021,-1.2964,-1.2948,-1.2943,-1.289,-1.292,-1.2917,-1.2914,-1.2913,-1.2807,-1.2807,0,0,0,0,0,0,-1.3171,-1.3158,-1.3073,-1.3068,-1.312,-1.307,-1.3061,-1.3042,-1.2997,-1.299,-1.302,-1.302,-1.2954,-1.2947,-1.2941,-1.2898,-1.2916,-1.2913,-1.2911,-1.2808,-1.2807,-1.2806,0,0,0,0,0,0,-1.3174,-1.3164,-1.3075,-1.3113,-1.3101,-1.3067,-1.3046,-1.304,-1.3025,-1.2989,-1.2983,-1.3011,-1.2954,-1.2945,-1.2908,-1.2896,-1.2911,-1.2908,-1.2809,-1.2808,-1.2807,-1.2814,0,0,0,0,0,0,-1.3177,-1.3165,-1.3152,-1.3113,-1.3099,-1.3045,-1.3045,-1.3038,-1.3019,-1.3018,-1.2979,-1.2973,-1.2954,-1.2913,-1.2905,-1.2891,-1.2906,-1.281,-1.2809,-1.2807,-1.2815,-1.2814,-1.2812,0,0,0,0,0,-1.3181,-1.3158,-1.3152,-1.3142,-1.3083,-1.3044,-1.3036,-1.3015,-1.3018,-1.3005,-1.2982,-1.2974,-1.2898,-1.291,-1.29,-1.2885,-1.2811,-1.2809,-1.2807,-1.2816,-1.2814,-1.2812,0,0,0,0,0,0,-1.3197,-1.3152,-1.3145,-1.3108,-1.308,-1.3041,-1.3024,-1.3014,-1.2985,-1.2985,-1.296,-1.2951,-1.2915,-1.2897,-1.291,-1.285,-1.2854,-1.2851,-1.2864,-1.2862,-1.2861,-1.2866,-1.2903,0,0,0,0,0,-1.3196,-1.3168,-1.313,-1.3101,-1.3087,-1.3058,-1.304,-1.3026,-1.2996,-1.2984,-1.2958,-1.2929,-1.2899,-1.2879,-1.285,-1.2812,-1.2803,-1.2797,-1.2796,-1.2795,-1.2792,-1.2769,-1.2766,-1.2801,-1.2801,-1.2801,0,0,-1.3194,-1.3166,-1.315,-1.3103,-1.308,-1.3051,-1.3048,-1.3018,-1.2996,-1.2979,-1.2942,-1.2922,-1.2888,-1.2851,-1.2833,-1.2834,-1.278,-1.2793,-1.2792,-1.2789,-1.2767,-1.2764,-1.2761,-1.28,-1.28,-1.28,0,0,-1.3175,-1.3152,-1.3124,-1.31,-1.3065,-1.3045,-1.3038,-1.3,-1.2986,-1.2948,-1.2935,-1.2908,-1.2857,-1.2833,-1.2814,-1.2785,-1.2776,-1.2776,-1.2768,-1.2747,-1.2744,-1.2742,-1.273,-1.2727,-1.2773,-1.2773,-1.2773,0,-1.3177,-1.3133,-1.3111,-1.3081,-1.3061,-1.3044,-1.3015,-1.2993,-1.295,-1.2936,-1.2938,-1.2872,-1.2848,-1.2803,-1.2796,-1.2782,-1.2773,-1.278,-1.2746,-1.2744,-1.2741,-1.273,-1.2726,-1.2773,-1.2773,-1.2773,-1.2773,0,-1.3137,-1.3107,-1.3088,-1.3046,-1.3024,-1.2995,-1.2968,-1.2947,-1.2935,-1.2915,-1.2876,-1.2847,-1.281,-1.2799,-1.2787,-1.2752,-1.2754,-1.2751,-1.2755,-1.2738,-1.2727,-1.2723,-1.2773,-1.2773,-1.2773,-1.2773,0,0,-1.3127,-1.3072,-1.3065,-1.3045,-1.3004,-1.298,-1.295,-1.2914,-1.2896,-1.2867,-1.284,-1.2796,-1.2793,-1.2772,-1.2757,-1.2738,-1.2716,-1.2738,-1.2736,-1.2734,-1.2675,-1.2677,-1.2672,-1.2709,-1.2709,-1.2708,-1.2677,0,-1.3103,-1.3048,-1.3026,-1.2981,-1.2952,-1.2935,-1.2909,-1.288,-1.2861,-1.2833,-1.2811,-1.278,-1.2779,-1.2766,-1.2746,-1.2722,-1.2703,-1.2724,-1.2684,-1.2683,-1.2693,-1.2667,-1.2669,-1.2641,-1.2673,-1.2672,-1.2672,0,-1.3067,-1.3036,-1.2988,-1.2949,-1.2936,-1.2913,-1.2877,-1.2851,-1.2818,-1.2805,-1.2781,-1.2766,-1.2733,-1.2739,-1.2693,-1.2708,-1.269,-1.2676,-1.2674,-1.2669,-1.2676,-1.2661,-1.2632,-1.2628,-1.2665,-1.2666,-1.2666,0,-1.3064,-1.301,-1.2974,-1.2958,-1.2912,-1.2895,-1.2875,-1.2843,-1.2822,-1.2791,-1.2777,-1.2743,-1.2724,-1.2697,-1.2674,-1.268,-1.2629,-1.2633,-1.2617,-1.2618,-1.2607,-1.2608,-1.2575,-1.2597,-1.2597,-1.2597,-1.2597,0,-1.3038,-1.301,-1.2972,-1.295,-1.2917,-1.2892,-1.286,-1.2839,-1.281,-1.2783,-1.2766,-1.2741,-1.2712,-1.2683,-1.2665,-1.2629,-1.2621,-1.2609,-1.2604,-1.261,-1.2612,-1.2598,-1.2599,-1.2596,-1.2596,-1.2596,-1.2596,0,-1.3029,-1.3003,-1.2962,-1.2921,-1.291,-1.2888,-1.2853,-1.283,-1.2809,-1.2776,-1.2766,-1.2733,-1.2699,-1.2673,-1.2628,-1.2615,-1.2577,-1.2572,-1.2588,-1.2585,-1.2571,-1.2572,-1.2527,-1.252,-1.2547,-1.2547,-1.2546,0,-1.3015,-1.2992,-1.2948,-1.2929,-1.2909,-1.2878,-1.2856,-1.283,-1.2808,-1.2768,-1.2751,-1.2715,-1.2684,-1.263,-1.2602,-1.2567,-1.2561,-1.2548,-1.2556,-1.2562,-1.256,-1.2562,-1.2559,-1.2547,-1.2547,-1.2546,-1.2546,0,-1.2992,-1.298,-1.2949,-1.2913,-1.2887,-1.2858,-1.2828,-1.2814,-1.2782,-1.2758,-1.2722,-1.2699,-1.2652,-1.2616,-1.2579,-1.2558,-1.2547,-1.2544,-1.2538,-1.2544,-1.2554,-1.2548,-1.2584,-1.2545,-1.2545,-1.2545,-1.2545,-1.2545,-1.2979,-1.2958,-1.2923,-1.2889,-1.2864,-1.2836,-1.2813,-1.2788,-1.2758,-1.2718,-1.2704,-1.2667,-1.2633,-1.2581,-1.256,-1.253,-1.253,-1.2522,-1.252,-1.2518,-1.2518,-1.2559,-1.2523,-1.2523,-1.2523,-1.2523,-1.2523,0,-1.2955,-1.2932,-1.29,-1.2859,-1.2832,-1.2823,-1.2789,-1.2767,-1.2734,-1.2704,-1.2674,-1.2632,-1.2597,-1.2566,-1.2529,-1.2511,-1.2505,-1.2502,-1.2503,-1.2498,-1.2521,-1.2529,-1.2508,-1.2508,-1.2508,-1.2508,-1.2508,-1.2508,-1.2939,-1.2902,-1.2885,-1.2835,-1.2812,-1.2774,-1.2756,-1.273,-1.2705,-1.2659,-1.2629,-1.2609,-1.2578,-1.2539,-1.2506,-1.2497,-1.2484,-1.2483,-1.2473,-1.2495,-1.2497,-1.2499,-1.2506,-1.248,-1.248,-1.2453,-1.2453,-1.2453]}]]